Regional Weather Roundup
Issued by NWS Albany, NY

Home | Current Version | Previous Version | Text Only | Print | Product List | Glossary On
Versions: 1 2 3 4 5 6 7 8 9 10 11 12 13 14 15 16 17 18 19 20 21 22 23 24 25 26 27 28
000
ASUS41 KALY 251710
RWRALY

NEW YORK STATE HOURLY WEATHER ROUNDUP
NATIONAL WEATHER SERVICE ALBANY NY
100 PM EDT SAT OCT 25 2014

NOTE: "FAIR" INDICATES FEW OR NO CLOUDS BELOW 12,000 FEET WITH NO
SIGNIFICANT WEATHER AND/OR NO OBSTRUCTIONS TO VISIBILITY.

NYZ032-033-038>043-046>054-057>066-NYZ062>081-251800-
EAST


CITY           SKY/WX    TMP DP  RH WIND       PRES   REMARKS
ALBANY         PTSUNNY   58  45  62 E3        29.72F
GLENS FALLS    PTSUNNY   57  46  66 SE8       29.69F
POUGHKEEPSIE   MOSUNNY   64  43  46 VRB5      29.74F
NEWBURGH       MOSUNNY   61  45  55 NW13G23   29.77F
MONTGOMERY     PTSUNNY   63  42  46 W10       29.74F
WHITE PLAINS   SUNNY     63  42  46 NW9       29.75F
ISLIP          MOSUNNY   64  42  44 W13       29.75F
NEW YORK CITY  MOSUNNY   63  40  42 W9        29.77F
CENTRAL PARK   SUNNY     63  41  44 VRB3      29.80F
$$

NYZ005>009-017-018-044>046-055-056-251800-
CENTRAL


CITY           SKY/WX    TMP DP  RH WIND       PRES   REMARKS
FULTON         MOSUNNY   63  48  58 SW9       29.67F
SYRACUSE       MOSUNNY   65  47  52 SW15      29.68F
ROME           MOSUNNY   58  48  69 SE6       29.69F
ELMIRA         SUNNY     65  46  50 SW12      29.72F
BINGHAMTON     MOSUNNY   58  43  57 NW9       29.73F
MONTICELLO     MOSUNNY   55  41  58 MISG      29.77F
$$

NYZ026>034-041>043-251800-
NORTH


CITY           SKY/WX    TMP DP  RH WIND       PRES   REMARKS
WATERTOWN      CLOUDY    60  47  61 SW17G28   29.63F
FORT DRUM      NOT AVBL
MASSENA        SUNNY     60  47  61 SW18G25   29.59F
SARANAC LAKE   PTSUNNY   51  43  74 S13G22    29.61F
PLATTSBURGH    CLOUDY    52  44  74 SE10      29.64F
$$

NYZ001>004-010>016-019>021-251800-
WEST


CITY           SKY/WX    TMP DP  RH WIND       PRES   REMARKS
NIAGARA FALLS  PTSUNNY   61  51  70 SW21G31   29.66F
BUFFALO        MOSUNNY   61  50  67 SW25G35   29.67F
DUNKIRK        LGT RAIN  64  48  56 SW14G31   29.71F
JAMESTOWN      SUNNY     61  48  63 SW14G21   29.76F
WELLSVILLE     PTSUNNY   60  42  51 W16G26    29.75F
ROCHESTER      PTSUNNY   65  47  52 SW12      29.65F
PENN YAN       SUNNY     65  46  50 SW12      29.69F
$$

             KEY
       WCI = WIND CHILL INDEX
       VSB = VISIBILITY
       HX  = HEAT INDEX
$$



USA.gov is the U.S. government's official web portal to all federal, state and local government web resources and services.